Location: Anuling
(14.1239°N, 120.8922°E)
Time: 05:23:46
(UTC+00:00)

MOS 1 Rocket - Pass Details

Date: 14 January 2026
Orbit: 608 x 815 km, 97.4° (Epoch: 7 February)

Event Time Altitude Azimuth Distance (km) Brightness Sun altitude
Rises 10:05:23 0° 176° (S) 3,317 7.0 -5.1°
Reaches altitude 10° 10:07:45 10° 180° (S) 2,394 6.3 -5.6°
Maximum altitude 10:13:01 61° 259° (W) 920 4.3 -6.8°
Drops below altitude 10° 10:18:15 10° 339° (NNW) 2,373 6.1 -8.0°
Sets 10:20:35 0° 343° (NNW) 3,286 6.7 -8.5°
